Showing default

INTELSAT 37E, 42950

Orbit data source: Space-Track

INTELSAT 37E, 42950 is a payload satellite owned by Intelsat SA (US) (US) in GEO that was launched on Fri, 29 Sep 2017 UTC via an ARIANE 5ECA launch vehicle from the French Guiana (FRGUI). Payload-class satellites include a variety of spacecraft equipped with specific instruments for various scientific and technological missions. These include communications satellites like Starlink; space stations such as the ISS; scientific satellites like the Hubble; Earth observation satellites from companies like Planet Labs, Umbra, and HawkEye 360; GPS; miniature CubeSats for education and research; and military/defense satellites.

Not visible in the next 10 days
Identifier
42950, 2017-059A
Orbit
GEO
Country
Flag of UnknownUnknown / ITSO
Related business
Manufacturer
Boeing/ES
Mission
Operational Commercial Communications
Bus & Motor
BSS-702MP, BT-4
Mass
6,538 kg wet, ~2,950 kg dry
Launch date (UTC)
2017-09-29 (8 years ago)
Launch vehicle
ARIANE 5ECA
Launch site
French Guiana (FRGUI)
Object type
Payload
Rocket body
Debris
Shape & HBR
Box + 2 Pan, 22.0 m
Radar Cross Section
65.369 m², Large (>1 m²)

Expand to show TLE details & history
Last TLE update: 11 hours ago

TLE from 11 hours ago
0 INTELSAT 37E
1 42950U 17059A   26035.33999884 -.00000147  00000-0  00000+0 0  9993
2 42950   0.0144  86.6099 0002627 214.4820 297.7718  1.00270646 30737
Epoch: 2026-02-04T08:09Z
TLE epoch observation values (Epoch: 2026-02-04T08:09:35.899Z)
Latitude
0.01955°
Longitude
-18.03419°
Altitude
35,781.237 km
Speed
3.075 km/s
True Right ascension
15h 55m 29s
True Declination
0° 01' 10"
Sunlit
Object was in daylight at epoch
Visualization orbit readout
Latitude
Unknown
Longitude
Unknown
Altitude
Unknown
Speed
Unknown
Apparent Right ascension
Unknown
Apparent Declination
Unknown
Sunlit
N/A
Visualization observer readout
Local Sidereal Time
21:37:57
Azimuth
Unknown
Elevation
Unknown
Doppler factor
Unknown
Orbital elements
Apogee altitude
35,799.062 km
Perigee altitude
35,776.908 km
Semi-major axis
42,166.122 km
Eccentricity
0.00026
Inclination
0.0144°
RAAN
86.6099°
Arg. of periapsis
214.482°
True anomaly
297.74516°
Mean anomaly
297.7718°
Eccentric anomaly
297.75848°
Mean motion
0.25067 °/min
Orbital period
1,436.17 mins
BSTAR
0
Loading maneuver chart data...
Computing Atmospheric mass density...
Loading historical data...
Loading historical data...
Loading historical data...
Loading historical data...
Loading historical data...
Loading historical data...
Loading historical data...
Other satellites on launch #59 in the year 2017 (2017-09-29 UTC)

Documentation

Showing up to 5 results
|